Find Starlink 11516

NORAD ID: 62522 Int'l Des: 2025-004 Owner: SPXS Country: US Constellation: starlink operational
又名: STARLINK-11516 [DTC] celestrak
LEOCIRCULAR

当前视图

正在加载3D地球...

About Starlink 11516

Starlink 11516 (NORAD 62522) is a starlink constellation satellite (v2 mini d2c) launched Jan 8, 2025 by SPXS of US. It operates in LEO, CIRCULAR orbit with a mass of 960.00 kg.

即将过境

Passes for default location (London). Set your location on the main map for personalized predictions.

高度历史

Loading altitude history...

两行轨道根数

1 62522U 25004M 26264.23321894 .00251762 00000-0 19048-2 0 9997
2 62522 43.0001 331.9478 0001367 275.3629 84.7082 15.70864017 97962
Epoch: Sep 21, 2026 • Age: 11 hours

当前状态

高度 358.4 km
远地点 / 近地点 N/A
速度 7.70 km/s
星下点 37.19°N, 134.52°E
发射日期 Jan 8, 2025
运行时间 1.7 years
类型 internet

技术详情

分类 Payload
质量 960.00 kg
干质量 910.00 kg
长度 0.30 m
跨度 29.00 m
形状 ? Box + pan
制造商 SPXS
平台类型 Starlink V2MD
阶段状态 In Orbit
所有者/国家 SPXS/US

Most Searched